Location: Ferques
(50.8300°N, 1.7599°E)
Time: 06:25:31
(UTC+00:00)

Cosmos 2058 Rocket - Pass Details

Date: 19 May 2025
Orbit: 604 x 634 km, 82.5° (Epoch: 18 June)

Event Time Altitude Azimuth Distance (km) Brightness Sun altitude
Rises 20:37:17 0° 184° (S) 2,917 6.1 -7.6°
Reaches altitude 10° 20:39:31 10° 183° (S) 2,012 5.3 -7.8°
Maximum altitude 20:43:59 77° 98° (E) 654 3.1 -8.3°
Drops below altitude 10° 20:48:27 10° 13° (NNE) 2,016 6.2 -8.8°
Sets 20:50:41 0° 12° (NNE) 2,923 7.1 -9.0°
